Powrót do katalogu

DELTA 1 DEB

AktywnySSO
NORAD 12222·DEBRIS·🇺🇸 United States

Wystrzelony Mar 5, 1978 z Vandenberg Space Force Base

Loading…

Następne Przeloty (najbliższe 24 godziny)

TLE

ŚwieżeSource: Space-Track

Epoka: Sep 14, 2026, 04:58 UTC

1 12222U 78026BP  26257.20749013  .00000137  00000-0  13810-3 0  9997
2 12222  99.0521 171.9782 0069907 251.3006 108.0557 13.92456869313703

Śledź DELTA 1 DEB w czasie rzeczywistym z AllMySat

Download on the App Store